Regional Weather Roundup
Issued by NWS Glasgow, MT

Home | Current Version | Previous Version | Text Only | Print | Product List | Glossary On
Versions: 1 2 3 4 5 6 7 8 9 10 11 12 13 14 15 16 17 18 19 20 21 22 23 24 25 26 27 28 29 30 31 32 33 34 35 36 37 38 39 40 41 42 43 44 45 46 47 48 49 50
224
ASUS45 KGGW 310115
RWRGGW
HOURLY REGIONAL WEATHER ROUNDUP FOR NORTHEAST MONTANA
NATIONAL WEATHER SERVICE GLASGOW MONTANA
700 PM MDT SAT JUL 30 2016

NOTE: "FAIR" INDICATES FEW OR NO CLOUDS BELOW 12,000 FEET WITH NO
SIGNIFICANT WEATHER AND/OR OBSTRUCTIONS TO VISISBILITY.

NORTHEAST MONTANA


CITY           SKY/WX    TMP DP  RH WIND       PRES   REMARKS
GLASGOW        MOSUNNY   87  56  34 SE10      29.66F
PLENTYWOOD       N/A     83  50  31 E5G14       N/A
WOLF POINT     SUNNY     91  52  26 SE7       29.70F
JORDAN           N/A     92  50  23 SE15      29.66F
SIDNEY         SUNNY     87  55  33 E7        29.72F
GLENDIVE       SUNNY     90  53  28 E9        29.73F
MALTA            N/A     91  62  37 SE6         N/A
SCOBEY           N/A     81  54  39 CALM      29.78S

FORT PECK REPORTS


CITY           SKY/WX    TMP DP  RH WIND       PRES   REMARKS
FORT PECK        N/A     89  58  34 E12         N/A
THE PINES        N/A     88  53  30 E7          N/A

SOUTHEAST MONTANA


CITY           SKY/WX    TMP DP  RH WIND       PRES   REMARKS
BILLINGS       MOSUNNY   96  36  12 CALM      29.72S
MILES CITY     SUNNY     96  46  18 NE10      29.67F
BAKER          SUNNY     89  54  30 E13       29.77F
LIVINGSTON     CLOUDY    83  43  24 SW32G48   29.79R

CENTRAL MONTANA


CITY           SKY/WX    TMP DP  RH WIND       PRES   REMARKS
HAVRE          SUNNY     91  50  24 S7        29.62F
LEWISTOWN      SUNNY     89  50  26 NE5       29.76F
GREAT FALLS    SUNNY     93  31  11 W16       29.69F
CUT BANK         N/A     87  35  15 W16       29.70S
HELENA         SUNNY     96  35  11 W13       29.70F
BUTTE          SUNNY     86  32  14 NW13G18   29.85F
BOZEMAN        CLOUDY    84  47  27 S20       29.78R

WESTERN MONTANA


CITY           SKY/WX    TMP DP  RH WIND       PRES   REMARKS
MISSOULA       SUNNY     90  33  13 W20G31    29.76R
KALISPELL      NOT AVBL

NORTH DAKOTA


CITY           SKY/WX    TMP DP  RH WIND       PRES   REMARKS
WILLISTON      SUNNY     85  56  37 E14       29.76F
DICKINSON      SUNNY     82  57  42 E9        29.77F
MINOT          SUNNY     86  60  41 E5        29.79F
BISMARCK       SUNNY     82  65  56 SE13      29.79F

SOUTHERN SASKATCHEWAN


CITY           SKY/WX    TMP DP  RH WIND       PRES   REMARKS
REGINA         PTSUNNY   79  57  47 SE15      29.71F
ESTEVAN        MOSUNNY   79  63  57 E7        29.79S
SWIFT CURRENT  SUNNY     73  61  64 SE16G25   29.70F





USA.gov is the U.S. government's official web portal to all federal, state and local government web resources and services.